20060525,79913
20060526,79659
20060529,84222
20060530,86131
20060531,84054
20060601,88160
20060602,89896
20060605,89472
20060606,88402
20060607,88804
20060608,88613
20060609,89234
20060612,89075
20060613,87289
20060614,87337
20060615,88049
20060616,90374
20060619,90402
20060620,89301
20060621,88592
20060622,89907
20060623,90371
20060626,90760
20060627,91052
20060628,89925
20060629,90573
20060630,92399
20060703,92224
20060704,93292
20060705,93720
20060706,92903
20060707,92737
20060710,90399
20060711,90454
20060712,91561
20060713,91161
20060714,89803
20060718,89928
20060719,90176
20060720,90911
20060721,90274
20060724,88322
20060725,90056
20060726,91040
20060727,90179
20060728,89432
20060731,89737
20060801,89572
20060802,88685
20060803,89453
20060804,90379
20060807,89568
20060808,89910
20060809,89985
20060810,89508
20060811,89879
20060814,90086
20060815,90341
20060816,92171
20060817,93662
20060818,94201
20060821,94153
20060822,93606
20060823,93977
20060824,93513
20060825,93733
20060828,94083
20060829,94024
20060830,94210
20060831,95040
20060901,95047
20060904,94912
20060905,94036
20060906,95072
20060907,93957
20060908,93236
20060911,93654
20060912,94313
20060913,95830
20060914,96408
20060915,95940
20060919,96179
20060920,94973
20060921,95040
20060922,93615
20060925,93394
20060926,93775
20060927,94956
20060928,94955
20060929,95403
20061002,94815
20061003,92590
20061004,92395
20061005,93185
20061006,93668
20061010,93999
20061011,94419
20061012,93518
20061013,94000
20061016,94112
20061017,93317
20061018,92074
20061019,91771
20061020,91296
20061023,91354
20061024,92525
20061025,92075
20061026,91731
20061027,91952
20061030,89747
20061031,89722
20061101,88844
20061102,87583
20061106,87805
20061107,88860
20061108,88230
20061109,88297
20061110,86945
20061113,86482
20061114,86960
20061115,87119
20061116,87457
20061117,87908
20061120,87358
20061121,87113
20061122,85731
20061124,83629
20061127,81473
20061128,78868
20061129,78472
20061130,78651
20061201,77369
20061204,75917
20061205,76089
20061206,75582
20061207,75223
20061208,74292
20061211,74532
20061212,74211
20061213,72966
20061214,72443
20061215,72744
20061218,72523
20061219,71914
20061220,71870
20061221,71510
20061222,70889
20061225,70406
20061226,70350
20061227,70516
20061228,70643
20061229,70333
20070104,70210
20070105,70158
20070109,70053
20070110,70294
20070111,70633
20070112,71479
20070115,71083
20070116,70840
20070117,71138
20070118,70006
20070119,68779
20070122,68124
20070123,67223
20070124,66970
20070125,66888
20070126,65849
20070129,65620
20070130,65251
20070131,65401
20070201,65410
20070202,65403
20070205,65346
20070206,64409
20070207,64197
20070208,64298
20070209,64413
20070213,63377
20070214,63204
20070215,63088
20070216,62770
20070219,62430
20070220,62486
20070221,63059
20070222,63303
20070223,63220
20070226,62382
20070227,61560
20070228,58040
20070301,58662
20070302,58381
20070305,56565
20070306,56154
20070307,57533
20070308,56874
20070309,58113
20070312,58483
20070313,58519
20070314,56305
20070315,56825
20070316,56706
20070319,55843
20070320,56426
20070322,57016
20070323,56690
20070326,56417
20070327,56679
20070328,55901
20070329,54688
20070330,55212
20070402,54815
20070403,54342
20070404,55223
20070405,54795
20070406,54773
20070409,54741
20070410,54538
20070411,54073
20070412,53357
20070413,53101
20070416,53044
20070417,53371
20070418,52798
20070419,52263
20070420,51848
20070423,51757
20070424,51292
20070425,51142
20070426,51344
20070427,51625
20070501,50697
20070502,50641
20070507,51298
20070508,51195
20070509,50869
20070510,51101
20070511,50129
20070514,50909
20070515,50520
20070516,49996
20070517,50456
20070518,50462
20070521,50287
20070522,50190
20070523,49824
20070524,48966
20070525,47515
20070528,47039
20070529,45326
20070530,45494
20070531,44220
20070601,43271
20070604,42460
20070605,41551
20070606,40772
20070607,39363
20070608,37838
20070611,37623
20070612,36846
20070613,36137
20070614,36568
20070615,36165
20070618,36416
20070619,36184
20070620,35762
20070621,34877
20070622,34749
20070625,33999
20070626,33472
20070627,32940
20070628,32941
20070629,32746
20070702,32174
20070703,31995
20070704,32086
20070705,31957
20070706,32345
20070709,32223
20070710,31932
20070711,31079
20070712,31272
20070713,31683
20070717,31381
20070718,31060
20070719,30669
20070720,30670
20070723,29828
20070724,29646
20070725,28762
20070726,28809
20070727,27778
20070730,27239
20070731,27435
20070801,26759
20070802,26913
20070803,27062
20070806,25767
20070807,26294
20070808,26394
20070809,26832
20070810,25473
20070813,25348
20070814,25244
20070815,24570
20070816,23836
20070817,23070
20070820,23689
20070821,23470
20070822,23385
20070823,23545
20070824,22898
20070827,23173
20070828,22734
20070829,21853
20070830,22617
20070831,22552
20070903,22694
20070904,22705
20070905,23044
20070906,22317
20070907,22246
20070910,21181
20070911,21281
20070912,21419
20070913,21251
20070914,21226
20070918,20782
20070919,21271
20070920,21199
20070921,20651
20070925,20626
20070926,20559
20070927,20710
20070928,20623
20071001,20324
20071002,20615
20071003,20461
20071004,20451
20071005,20163
20071009,20476
20071010,20420
20071011,20352
20071012,19907
20071015,19896
20071016,19070
20071017,18761
20071018,18734
20071019,18437
20071022,17512
20071023,17474
20071024,17652
20071025,17331
20071026,17124
20071029,17040
20071030,16952
20071031,16837
20071101,17049
20071102,16527
20071105,16524
20071106,16401
20071107,16628
20071108,15841
20071109,15515
20071112,14750
20071113,14191
20071114,14768
20071115,14533
20071116,14120
20071119,14230
20071120,13763
20071121,13753
20071122,13373
20071126,13578
20071127,13148
20071128,13375
20071129,13944
20071130,13968
20071203,13996
20071204,13797
20071205,13621
20071206,13970
20071207,14170
20071210,14093
20071211,14051
20071212,13495
20071213,13617
20071214,13639
20071217,13544
20071218,13103
20071219,13150
20071220,12966
20071221,13009
20071225,13359
20071226,13304
20071227,13390
20071228,13093
20080104,12273
20080107,11802
20080108,11750
20080109,11523
20080110,11786
20080111,11702
20080115,11451
20080116,10901
20080117,10652
20080118,10204
20080121,10188
20080122,10043
20080123,9951
20080124,9858
20080125,10009
20080128,10084
20080129,10147
20080130,10147
20080131,10020
20080201,10137
20080204,10223
20080205,10130
20080206,9792
20080207,9584
20080208,9730
20080212,9840
20080213,9883
20080214,10121
20080215,9934
20080218,9875
20080219,9884
20080220,9840
20080221,9910
20080222,9737
20080225,9784
20080226,9950
20080227,9882
20080228,9797
20080229,9632
20080303,9249
20080304,9252
20080305,9208
20080306,9313
20080307,9013
20080310,8832
20080311,8529
20080312,8952
20080313,8773
20080314,8824
20080317,8323
20080318,8083
20080319,8659
20080321,8499
20080324,8525
20080325,8817
20080326,8860
20080327,8733
20080328,8641
20080331,8670
20080401,8692
20080402,9184
20080403,9160
20080404,9228
20080407,9218
20080408,9232
20080409,9203
20080410,9015
20080411,9139
20080414,8904
20080415,8844
20080416,8917
20080417,9157
20080418,9141
20080421,9541
20080422,9532
20080423,9412
20080424,9449
20080425,9542
20080428,9599
20080430,9524
20080501,9453
20080502,9664
20080507,9819
20080508,9629
20080509,9625
20080512,9507
20080513,9650
20080514,9725
20080515,9699
20080516,9702
20080519,9648
20080520,9557
20080521,9445
20080522,9141
20080523,9247
20080526,9084
20080527,9103
20080528,9254
20080529,9366
20080530,9490
20080602,9500
20080603,9298
20080604,9289
20080605,9315
20080606,9594
20080609,9245
20080610,9372
20080611,9365
20080612,9149
20080613,9210
20080616,9355
20080617,9400
20080618,9356
20080619,9239
20080620,9300
20080623,9019
20080624,9067
20080625,8959
20080626,9006
20080627,8618
20080630,8560
20080701,8512
20080702,8576
20080703,8362
20080704,8371
20080707,8339
20080708,8309
20080709,8429
20080710,8183
20080711,8243
20080714,8082
20080715,7996
20080716,7819
20080717,7937
20080718,8064
20080722,8000
20080723,8111
20080724,8169
20080725,7966
20080728,8130
20080729,7916
20080730,8096
20080731,8208
20080801,8092
20080804,7977
20080805,7879
20080806,8075
20080807,8216
20080808,8101
20080811,8264
20080812,8301
20080813,8167
20080814,8227
20080815,8293
20080818,8315
20080819,8183
20080820,8118
20080821,8170
20080822,8103
20080825,8240
20080826,8025
20080827,7996
20080828,8049
20080829,7920
20080901,7734
20080902,7725
20080903,7654
20080904,7553
20080905,7245
20080908,7328
20080909,7278
20080910,7037
20080911,7114
20080912,7219
20080916,6800
20080917,7070
20080918,6600
20080919,6915
20080922,7156
20080924,6702
20080925,6772
20080926,6856
20080929,6892
20080930,6040
20081001,6501
20081002,6478
20081003,6126
20081006,6038
20081007,5643
20081008,5421
20081009,5335
20081010,4929
20081014,5622
20081015,5406
20081016,4919
20081017,5190
20081020,5214
20081021,5407
20081022,5129
20081023,4777
20081024,4689
20081027,4369
20081028,4167
20081029,4763
20081030,4817
20081031,4942
20081104,4986
20081105,5161
20081106,4855
20081107,4623
20081110,4832
20081111,4689
20081112,4583
20081113,4311
20081114,4635
20081117,4421
20081118,4320
20081119,4378
20081120,4136
20081121,3819
20081125,4283
20081126,4229
20081127,4378
20081128,4371
20081201,4383
20081202,3962
20081203,4046
20081204,4160
20081205,4003
20081208,4133
20081209,4280
20081210,4189
20081211,4218
20081212,4057
20081215,4061
20081216,3992
20081217,4104
20081218,4003
20081219,4060
20081222,4071
20081224,3987
20081225,4003
20081226,4017
20081229,4017
20081230,4024
20090105,4308
20090106,4347
20090107,4398
20090108,4266
20090109,4195
20090113,3963
20090114,3959
20090115,3844
20090116,3885
20090119,3944
20090120,3914
20090121,3710
20090122,3818
20090123,3797
20090126,3830
20090127,3862
20090128,3873
20090129,4057
20090130,3916
20090202,3843
20090203,3831
20090204,3889
20090205,3875
20090206,4011
20090209,4140
20090210,4109
20090212,3917
20090213,3970
20090216,3983
20090217,3991
20090218,3861
20090219,3945
20090220,3917
20090223,3863
20090224,3776
20090225,3994
20090226,3962
20090227,3906
20090302,3808
20090303,3676
20090304,3739
20090305,3854
20090306,3698
20090309,3696
20090310,3668
20090311,3816
20090312,3773
20090313,3907
20090316,3955
20090317,3943
20090318,4070
20090319,3984
20090323,3884
20090324,4187
20090325,4150
20090326,4164
20090327,4291
20090330,4199
20090331,4090
20090401,4157
20090402,4187
20090403,4344
20090406,4434
20090407,4391
20090408,4302
20090409,4307
20090410,4464
20090413,4448
20090414,4454
20090415,4293
20090416,4346
20090417,4425
20090420,4405
20090421,4191
20090422,4285
20090423,4239
20090424,4279
20090427,4304
20090428,4275
20090430,4398
20090501,4444
20090507,4622
20090508,4561
20090511,4607
20090512,4472
20090513,4367
20090514,4230
20090515,4287
20090518,4196
20090519,4388
20090520,4367
20090521,4269
20090522,4187
20090525,4200
20090526,4202
20090527,4340
20090528,4305
20090529,4397
20090601,4370
20090602,4544
20090603,4504
20090604,4480
20090605,4556
20090608,4648
20090609,4625
20090610,4591
20090611,4594
20090612,4587
20090615,4585
20090616,4432
20090617,4335
20090618,4298
20090619,4363
20090622,4362
20090623,4188
20090624,4204
20090625,4254
20090626,4344
20090629,4331
20090630,4381
20090701,4353
20090702,4370
20090703,4229
20090706,4220
20090707,4196
20090708,4070
20090709,3995
20090710,4029
20090713,4004
20090714,4105
20090715,4139
20090716,4297
20090717,4314
20090721,4392
20090722,4374
20090723,4392
20090724,4537
20090727,4550
20090728,4551
20090729,4507
20090730,4506
20090731,4580
20090803,4544
20090804,4652
20090805,4643
20090806,4612
20090807,4590
20090810,4709
20090811,4662
20090812,4574
20090813,4636
20090814,4642
20090817,4544
20090818,4416
20090819,4472
20090820,4475
20090821,4521
20090824,4621
20090825,4576
20090826,4585
20090827,4577
20090828,4576
20090831,4524
20090901,4497
20090902,4401
20090903,4354
20090904,4434
20090907,4507
20090908,4498
20090909,4527
20090910,4542
20090911,4539
20090914,4486
20090915,4520
20090916,4511
20090917,4589
20090918,4585
20090924,4566
20090925,4503
20090928,4375
20090929,4527
20090930,4516
20091001,4483
20091002,4335
20091005,4332
20091006,4378
20091007,4433
20091008,4443
20091009,4483
20091013,4573
20091014,4561
20091015,4647
20091016,4693
20091019,4639
20091020,4663
20091021,4657
20091022,4627
20091023,4704
20091026,4691
20091027,4626
20091028,4549
20091029,4395
20091030,4547
20091102,4340
20091104,4388
20091105,4419
20091106,4503
20091109,4477
20091110,4578
20091111,4543
20091112,4583
20091113,4545
20091116,4518
20091117,4553
20091118,4560
20091119,4535
20091120,4446
20091124,4459
20091125,4420
20091126,4378
20091127,4326
20091130,4273
20091201,4270
20091202,4324
20091203,4378
20091204,4357
20091207,4467
20091208,4394
20091209,4316
20091210,4329
20091211,4358
20091214,4367
20091215,4393
20091216,4403
20091217,4430
20091218,4274
20091221,4376
20091222,4453
20091224,4513
20091225,4528
20091228,4536
20091229,4545
20091230,4563
20100104,4578
20100105,4623
20100106,4598
20100107,4636
20100108,4685
20100112,4649
20100113,4520
20100114,4560
20100115,4557
20100118,4461
20100119,4454
20100120,4522
20100121,4488
20100122,4330
20100125,4195
20100126,4223
20100127,4151
20100128,4207
20100129,4104
20100201,4069
20100202,4149
20100203,4177
20100204,4193
20100205,3998
20100208,3991
20100209,3958
20100210,4036
20100212,4062
20100215,4077
20100216,4072
20100217,4155
20100218,4203
20100219,4258
20100222,4253
20100223,4209
20100224,4102
20100225,4125
20100226,4085
20100301,4081
20100302,4130
20100303,4110
20100304,4113
20100305,4165
20100308,4270
20100309,4245
20100310,4244
20100311,4282
20100312,4303
20100315,4316
20100316,4261
20100317,4297
20100318,4314
20100319,4308
20100323,4289
20100324,4319
20100325,4386
20100326,4398
20100329,4399
20100330,4397
20100331,4456
20100401,4455
20100402,4501
20100405,4508
20100406,4541
20100407,4505
20100408,4466
20100409,4472
20100412,4452
20100413,4450
20100414,4482
20100415,4548
20100416,4536
20100419,4384
20100420,4413
20100421,4470
20100422,4440
20100423,4490
20100426,4566
20100427,4513
20100428,4376
20100430,4489
20100506,4332
20100507,4096
20100510,4046
20100511,4257
20100512,4230
20100513,4320
20100514,4226
20100517,4119
20100518,4130
20100519,4022
20100520,4013
20100521,3769
20100524,3829
20100525,3792
20100526,3791
20100527,3754
20100528,3941
20100531,3893
20100601,3877
20100602,3829
20100603,3963
20100604,4012
20100607,3801
20100608,3750
20100609,3754
20100610,3718
20100611,3852
20100614,3880
20100615,3868
20100616,3959
20100617,3945
20100618,3925
20100621,3912
20100622,3912
20100623,3827
20100624,3796
20100625,3710
20100628,3709
20100629,3688
20100630,3515
20100701,3471
20100702,3440
20100705,3427
20100706,3410
20100707,3429
20100708,3558
20100709,3605
20100712,3641
20100713,3629
20100714,3694
20100715,3669
20100716,3635
20100720,3512
20100721,3575
20100722,3502
20100723,3594
20100726,3629
20100727,3619
20100728,3650
20100729,3600
20100730,3561
20100802,3556
20100803,3632
20100804,3563
20100805,3618
20100806,3607
20100809,3562
20100810,3586
20100811,3528
20100812,3409
20100813,3414
20100816,3374
20100817,3351
20100818,3401
20100819,3404
20100820,3329
20100823,3314
20100824,3270
20100825,3177
20100826,3198
20100827,3153
20100830,3260
20100831,3172
20100901,3157
20100902,3267
20100903,3304
20100906,3360
20100907,3348
20100908,3289
20100909,3314
20100910,3335
20100913,3354
20100914,3367
20100915,3420
20100916,3447
20100917,3457
20100921,3500
20100922,3461
20100924,3401
20100927,3476
20100928,3431
20100929,3420
20100930,3401
20101001,3373
20101004,3381
20101005,3354
20101006,3418
20101007,3395
20101008,3349
20101012,3368
20101013,3361
20101014,3375
20101015,3361
20101018,3386
20101019,3400
20101020,3352
20101021,3363
20101022,3377
20101025,3386
20101026,3377
20101027,3403
20101028,3413
20101029,3381
20101101,3345
20101102,3352
20101104,3407
20101105,3466
20101108,3486
20101109,3475
20101110,3464
20101111,3497
20101112,3485
20101115,3434
20101116,3448
20101117,3400
20101118,3401
20101119,3474
20101122,3484
20101124,3412
20101125,3479
20101126,3490
20101129,3482
20101130,3476
20101201,3411
20101202,3507
20101203,3534
20101206,3506
20101207,3489
20101208,3524
20101209,3548
20101210,3538
20101213,3561
20101214,3538
20101215,3569
20101216,3566
20101217,3558
20101220,3558
20101221,3544
20101222,3532
20101224,3513
20101227,3500
20101228,3492
20101229,3469
20101230,3446
20110104,3487
20110105,3488
20110106,3572
20110107,3558
20110111,3536
20110112,3553
20110113,3572
20110114,3564
20110117,3598
20110118,3594
20110119,3593
20110120,3507
20110121,3523
20110124,3506
20110125,3531
20110126,3495
20110127,3525
20110128,3578
20110131,3474
20110201,3505
20110202,3532
20110203,3515
20110204,3521
20110207,3569
20110208,3596
20110209,3603
20110210,3612
20110214,3669
20110215,3692
20110216,3699
20110217,3712
20110218,3757
20110221,3757
20110222,3761
20110223,3654
20110224,3673
20110225,3673
20110228,3720
20110301,3765
20110302,3693
20110303,3705
20110304,3803
20110307,3779
20110308,3727
20110309,3777
20110310,3762
20110311,3689
20110314,3678
20110315,3646
20110316,3584
20110317,3416
20110318,3550
20110322,3613
20110323,3596
20110324,3614
20110325,3656
20110328,3673
20110329,3665
20110330,3738
20110331,3774
20110401,3785
20110404,3828
20110405,3829
20110406,3856
20110407,3858
20110408,3837
20110411,3811
20110412,3775
20110413,3698
20110414,3706
20110415,3688
20110418,3661
20110419,3594
20110420,3619
20110421,3651
20110422,3653
20110425,3670
20110426,3639
20110427,3625
20110428,3659
20110502,3632
20110506,3503
20110509,3523
20110510,3523
20110511,3580
20110512,3542
20110513,3538
20110516,3502
20110517,3462
20110518,3483
20110519,3538
20110520,3543
20110523,3514
20110524,3469
20110525,3468
20110526,3503
20110527,3489
20110530,3496
20110531,3492
20110601,3555
20110602,3452
20110603,3446
20110606,3377
20110607,3334
20110608,3327
20110609,3303
20110610,3341
20110613,3284
20110614,3263
20110615,3328
20110616,3268
20110617,3238
20110620,3204
20110621,3211
20110622,3280
20110623,3265
20110624,3272
20110627,3243
20110628,3265
20110629,3328
20110630,3341
20110701,3385
20110704,3430
20110705,3432
20110706,3446
20110707,3450
20110708,3502
20110711,3451
20110712,3353
20110713,3302
20110714,3279
20110715,3266
20110719,3271
20110720,3342
20110721,3301
20110722,3329
20110725,3335
20110726,3310
20110727,3278
20110728,3187
20110729,3181
20110801,3167
20110802,3122
20110803,3026
20110804,3109
20110805,2918
20110808,2859
20110809,2637
20110810,2750
20110811,2625
20110812,2748
20110815,2766
20110816,2809
20110817,2767
20110818,2758
20110819,2604
20110822,2555
20110823,2556
20110824,2663
20110825,2706
20110826,2671
20110829,2706
20110830,2794
20110831,2805
20110901,2831
20110902,2750
20110905,2669
20110906,2674
20110907,2670
20110908,2746
20110909,2715
20110912,2638
20110913,2644
20110914,2666
20110915,2687
20110916,2737
20110920,2729
20110921,2700
20110922,2642
20110926,2555
20110927,2601
20110928,2636
20110929,2567
20110930,2573
20111003,2511
20111004,2422
20111005,2489
20111006,2553
20111007,2608
20111011,2677
20111012,2686
20111013,2719
20111014,2707
20111017,2779
20111018,2692
20111019,2750
20111020,2693
20111021,2696
20111024,2721
20111025,2773
20111026,2698
20111027,2710
20111028,2811
20111031,2880
20111101,2817
20111102,2727
20111104,2834
20111107,2825
20111108,2829
20111109,2851
20111110,2726
20111111,2727
20111114,2725
20111115,2698
20111116,2716
20111117,2668
20111118,2595
20111121,2586
20111122,2537
20111124,2470
20111125,2476
20111128,2470
20111129,2565
20111130,2556
20111201,2643
20111202,2654
20111205,2665
20111206,2680
20111207,2674
20111208,2669
20111209,2599
20111212,2644
20111213,2608
20111214,2567
20111215,2538
20111216,2532
20111219,2540
20111220,2514
20111221,2585
20111222,2574
20111226,2607
20111227,2608
20111228,2602
20111229,2551
20111230,2567
20120104,2575
20120105,2584
20120106,2611
20120110,2600
20120111,2631
20120112,2632
20120113,2638
20120116,2621
20120117,2612
20120118,2621
20120119,2655
20120120,2688
20120123,2659
20120124,2664
20120125,2693
20120126,2736
20120127,2705
20120130,2670
20120131,2655
20120201,2645
20120202,2667
20120203,2677
20120206,2720
20120207,2713
20120208,2728
20120209,2739
20120210,2765
20120213,2740
20120214,2757
20120215,2793
20120216,2778
20120217,2829
20120220,2837
20120221,2842
20120222,2849
20120223,2860
20120224,2856
20120227,2908
20120228,2865
20120229,2884
20120301,2885
20120302,2909
20120305,2904
20120306,2870
20120307,2792
20120308,2835
20120309,2883
20120312,2923
20120313,2917
20120314,3007
20120315,3035
20120316,3035
20120319,3031
20120321,3050
20120322,3037
20120323,2989
20120326,2999
20120327,3044
20120328,3035
20120329,3013
20120330,2984
20120402,3028
20120403,3005
20120404,3034
20120405,2979
20120406,2983
20120409,2945
20120410,2922
20120411,2831
20120412,2859
20120413,2912
20120416,2864
20120417,2825
20120418,2892
20120419,2900
20120420,2859
20120423,2761
20120424,2723
20120425,2735
20120426,2783
20120427,2795
20120501,2745
20120502,2770
20120507,2666
20120508,2665
20120509,2655
20120510,2633
20120511,2612
20120514,2603
20120515,2563
20120516,2559
20120517,2538
20120518,2497
20120521,2467
20120522,2541
20120523,2555
20120524,2558
20120525,2551
20120528,2532
20120529,2530
20120530,2563
20120531,2495
20120601,2468
20120604,2374
20120605,2384
20120606,2414
20120607,2486
20120608,2490
20120611,2501
20120612,2452
20120613,2491
20120614,2463
20120615,2473
20120618,2495
20120619,2498
20120620,2522
20120621,2528
20120622,2478
20120625,2502
20120626,2427
20120627,2430
20120628,2453
20120629,2427
20120702,2521
20120703,2517
20120704,2552
20120705,2558
20120706,2556
20120709,2446
20120710,2440
20120711,2409
20120712,2406
20120713,2383
20120717,2398
20120718,2417
20120719,2439
20120720,2463
20120723,2417
20120724,2391
20120725,2360
20120726,2344
20120727,2387
20120730,2447
20120731,2421
20120801,2390
20120802,2393
20120803,2377
20120806,2443
20120807,2439
20120808,2474
20120809,2461
20120810,2465
20120813,2453
20120814,2461
20120815,2471
20120816,2483
20120817,2517
20120820,2528
20120821,2514
20120822,2502
20120823,2488
20120824,2470
20120827,2486
20120828,2484
20120829,2486
20120830,2493
20120831,2463
20120903,2460
20120904,2465
20120905,2470
20120906,2461
20120907,2530
20120910,2522
20120911,2502
20120912,2487
20120913,2491
20120914,2522
20120918,2569
20120919,2572
20120920,2563
20120921,2556
20120924,2550
20120925,2527
20120926,2493
20120927,2472
20120928,2491
20121001,2485
20121002,2490
20121003,2493
20121004,2509
20121005,2522
20121009,2485
20121010,2454
20121011,2430
20121012,2442
20121015,2436
20121016,2460
20121017,2491
20121018,2494
20121019,2481
20121022,2418
20121023,2440
20121024,2410
20121025,2404
20121026,2410
20121029,2389
20121030,2396
20121031,2388
20121101,2394
20121102,2431
20121105,2411
20121106,2414
20121107,2430
20121108,2375
20121109,2324
20121112,2328
20121113,2341
20121114,2330
20121115,2325
20121116,2351
20121119,2374
20121120,2427
20121121,2439
20121122,2467
20121126,2500
20121127,2480
20121128,2468
20121129,2482
20121130,2507
20121203,2515
20121204,2495
20121205,2473
20121206,2476
20121207,2488
20121210,2487
20121211,2485
20121212,2471
20121213,2493
20121214,2486
20121217,2473
20121218,2498
20121219,2542
20121220,2518
20121221,2531
20121225,2512
20121226,2521
20121227,2509
20121228,2544
20130104,2644
20130107,2670
20130108,2652
20130109,2635
20130110,2681
20130111,2730
20130115,2745
20130116,2741
20130117,2740
20130118,2798
20130121,2794
20130122,2792
20130123,2768
20130124,2773
20130125,2839
20130128,2875
20130129,2853
20130130,2863
20130131,2858
20130201,2885
20130204,2936
20130205,2887
20130206,2964
20130207,2957
20130208,2961
20130212,3000
20130213,2967
20130214,2971
20130215,2959
20130218,2978
20130219,2977
20130220,2987
20130221,2949
20130222,2904
20130225,2955
20130226,2861
20130227,2858
20130228,2908
20130301,2905
20130304,2946
20130305,2960
20130306,2979
20130307,3007
20130308,3038
20130311,3080
20130312,3093
20130313,3070
20130314,3070
20130315,3087
20130318,3031
20130319,3043
20130321,3072
20130322,3056
20130325,3063
20130326,2984
20130327,3024
20130328,3014
20130329,3013
20130401,3020
20130402,2961
20130403,3001